Location: Newark
(41.0400°S, 62.7845°W)
Time: 15:24:58
(UTC+00:00)

STARLINK-3086 - Pass Details

Date: 04 June 2022
Orbit: 570 x 574 km, 70.0° (Epoch: 04 July)

Event Time Altitude Azimuth Distance (km) Brightness Sun altitude
Rises 21:16:43 0° 216° (SW) 2,811 7.4 -5.3°
Reaches altitude 10° 21:19:10 10° 227° (SW) 1,903 6.7 -5.7°
Maximum altitude 21:22:50 29° 287° (WNW) 1,086 6.2 -6.3°
Drops below altitude 10° 21:26:28 10° 346° (NNW) 1,880 6.9 -7.0°
Sets 21:28:52 0° 357° (N) 2,768 7.6 -7.4°
